Home   Weather   Xi'an   Past weeks

Flag for China Past Weather in Xi'an, Shaanxi, China — Yesterday and Last 2 Weeks

50 °F

Light rain. Fog.

Feels Like: 48 °F
Forecast: 44 / 59 °F
Wind: 6 mph from South

Location: Xian/Xianyang

Current Time: Oct 24, 2016 at 1:25:26 PM

Latest Report: Oct 24, 2016 at 1:00 PM

Visibility: 2 mi

Pressure: 30.07 "Hg

Humidity: 100%

Dew Point: 50 °F

Location of Xi'anLocation

Past Weather in Xi'an — Graph


Xi'an Temperature Yesterday

Maximum temperature yesterday: 55 °F (at 10:00 AM)
Minimum temperature yesterday: 52 °F (at 7:00 PM)
Average temperature yesterday: 54 °F

High & Low Weather Summary for the Past Weeks

High81 °F (Oct 20, 1:00 PM)100% (Oct 9, 11:00 PM)30.30 "Hg (Oct 9, 11:00 PM)
Low48 °F (Oct 24, 6:00 AM)47% (Oct 17, 2:00 PM)29.77 "Hg (Oct 20, 2:00 PM)
Average59 °F89%30.09 "Hg
* Reported Oct 9 12:00 PM — Oct 24 12:00 PM, Xi'an, Weather by CustomWeather, © 2016

Note: Actual official high and low records may vary slightly from our data, if they occured in-between our weather recording intervals... More about our weather records


Xi'an Weather History for the Previous 24 Hours

Scroll right to see more
Time TempWeatherWind HumidityBarometerVisibility
12:00 PM
Mon, Oct 24
50 °FRain. Fog.3 mph100%30.09 "Hg1 mi
11:00 AM48 °FLight rain. Fog.3 mph100%30.12 "Hg1 mi
10:00 AM48 °FLight rain. Fog.No wind100%30.09 "Hg1 mi
9:00 AM48 °FLight rain. Fog.1 mph100%30.07 "Hg1 mi
8:00 AM48 °FLight rain. Fog.3 mph100%30.04 "Hg2 mi
7:00 AM48 °FMostly cloudy.6 mph100%30.01 "Hg4 mi
6:00 AM48 °FMostly cloudy.6 mph100%30.01 "Hg4 mi
5:00 AM50 °FMostly cloudy.6 mph94%30.01 "Hg4 mi
4:00 AM50 °FMostly cloudy.6 mph94%30.04 "Hg4 mi
3:00 AM50 °FMostly cloudy.6 mph94%30.04 "Hg4 mi
2:00 AM50 °FMostly cloudy.6 mph100%30.04 "Hg4 mi
1:00 AM50 °FMostly cloudy.8 mph100%30.07 "HgN/A
12:00 AM50 °FMostly cloudy.8 mph100%30.07 "HgN/A
11:00 PM
Sun, Oct 23
52 °FMostly cloudy.10 mph94%30.07 "HgN/A
10:00 PM52 °FOvercast.10 mph94%30.07 "HgN/A
9:00 PM52 °FMostly cloudy.10 mph94%30.07 "Hg5 mi
8:00 PM52 °FOvercast.10 mph94%30.04 "Hg4 mi
7:00 PM52 °FFog.15 mph100%30.04 "Hg2 mi
6:00 PM54 °FFog.10 mph100%30.01 "Hg2 mi
5:00 PM54 °FFog.13 mph100%30.01 "Hg2 mi
4:00 PM54 °FFog.10 mph100%30.01 "Hg2 mi
3:00 PM54 °FFog.13 mph100%30.01 "Hg2 mi
2:00 PM55 °FFog.10 mph100%30.01 "Hg2 mi
1:00 PM55 °FFog.8 mph94%30.07 "Hg3 mi
Weather by CustomWeather, © 2016

See weather overviewHow to use our weather pages